FENGYUN 1C DEB

Satellite information

Favourite Embed

Satellite Type and Status

DEBRISIN ORBIT

Key statistics

Satellite FENGYUN 1C DEB at a glance.

Uptime

9496

Days in orbit

Revolutions

≈ 14.0

Per day

Orbit

SSO

Sun Synchronous Orbit

Inclination

99.1

Latest

Satellite identification and parameters

Extended collection of information and parameters for FENGYUN 1C DEB.

Object identification

Identified? True

Debris? True

Object name: FENGYUN 1C DEB

International designator: 1999-025EEU

Object number (NORAD): 37060

Object ID (CCSDS): 37060

Country: PEOPLES REPUBLIC OF CHINA (PRC)

Current information (Y/N): Y

RCS size: SMALL

Orbital parameters

Period: 102.829 minutes

Inclination: 99.1263 deg

SMA: 7270.594 km

Apoapsis: 950.273 km

Periapsis: 834.646 km

RAAN: 181.0498 deg

Eccentricy: 0.0079517

Argument of periapsis: 244.2866 deg

Mean anomaly: 115.0073 deg

Mean motion: 14.00386427 rev/day

Mean motion (dot): 0.0000078 rev/day2

B* drag term: 0.00054233 1/REarth

Two-line elements (TLE)

Creation date: May 3, 2025, 2:26 a.m.

Reference frame: TEME

Reference center: EARTH

Epoch: May 2, 2025, 9:23 p.m. UTC

TLE line 0: 0 FENGYUN 1C DEB

TLE line 1: 1 37060U 99025EEU 25122.89166487 .00000780 00000-0 54233-3 0 9997

TLE line 2: 2 37060 99.1263 181.0498 0079517 244.2866 115.0073 14.00386427595731

Live tracking on map

Real-time ground track for satellite FENGYUN 1C DEB.

In-orbit conjunctions

A list of the most updated potential collisions computed for object FENGYUN 1C DEB.

Target Orbit TCA Probability of collision Miss distance Type
SL-14 DEB LEO 2025-03-11 06:00:34 0.0001028089 65.0 (m) DEBRIS
COSMOS 1275 DEB LEO 2024-08-09 17:24:12 0.0001104022 156.0 (m) DEBRIS

Associated space launch

Chinese polar orbiting meteorological satellite

FENGYUN 1C DEB was lifted into orbit during the mission ‘Long March 4B | Feng Yun 1C’, on board a Long March 4B space rocket.

The launch took place on May 10, 1999, 1:33 a.m. from Launch Complex 7.

For more information about the launch, click the button.

Launch to space Long March 4B | Feng Yun 1C
Long March 4B | Feng Yun 1C

Agency: N/A

Status: Launch Successful

Launch date: May 10, 1999, 1:33 a.m. UTC

Rocket: Long March 4B

Launch pad: Launch Complex 7

Location: Taiyuan Satellite Launch Center, People's Republic of China

...

Latest news about this satellite

There are no fresh news available about this satellite. Check back as we update our databases every day.


Newsletter sign-up

Weekly statistics, charts and insights to help you stay on top of the space industry.